Theta_e
344 345 346 346 347 348 348 350 350 352 353 353 355 353 352 353 353 350 351 353 354 354 355 354 353 354 352 349 354 356 354 353 354 347 332 343 348 345 334 331 343 343 339
344 344 345 346 346 347 349 351 351 352 353 353 353 353 353 353 354 354 357 353 355 354 356 353 355 355 355 357 356 358 356 354 354 352 343 337 345 344 336 330 329 338 337
344 345 345 345 346 346 348 350 352 352 351 350 352 353 356 354 355 351 349 354 357 356 356 358 356 353 355 353 361 354 358 354 353 353 351 348 343 341 335 331 334 338 335
343 344 345 345 345 345 347 350 352 353 353 351 350 351 354 355 354 354 351 358 355 357 357 359 362 361 356 349 354 357 357 353 354 352 353 351 347 344 338 338 339 337 336
348 345 344 344 345 345 345 347 352 354 351 349 346 351 354 354 355 349 355 351 358 355 355 355 360 362 359 357 356 358 358 357 356 352 352 351 351 347 342 339 339 336 337
348 348 346 345 344 345 346 347 350 352 347 351 341 347 355 354 356 353 352 351 350 355 355 358 358 359 360 359 358 354 353 356 354 351 352 351 351 350 350 347 344 338 337
347 348 348 347 344 344 345 346 350 353 352 347 345 338 343 359 356 359 355 351 349 349 348 357 360 356 355 353 350 351 353 349 355 352 353 352 348 351 350 348 346 341 337
346 348 348 348 346 344 345 346 349 353 353 348 342 339 339 351 353 354 354 352 350 349 350 352 354 354 354 352 351 350 352 351 352 350 352 353 353 352 349 345 345 342 339
346 347 348 347 346 345 345 345 346 353 354 351 344 341 339 342 352 351 354 355 352 351 347 349 352 351 352 351 352 351 352 349 353 353 352 352 351 351 349 345 345 343 339
348 348 348 347 346 346 346 347 348 351 353 352 350 347 343 341 341 350 355 354 351 350 344 334 336 353 353 352 352 352 353 353 355 354 353 352 352 352 351 347 344 344 342
346 348 348 348 348 348 348 347 348 349 352 351 352 353 353 352 344 351 350 350 346 346 345 342 338 353 356 356 358 358 355 357 354 353 353 353 352 352 351 348 345 345 344
335 337 348 348 348 349 349 348 348 348 351 351 350 348 347 349 353 341 341 347 347 349 345 346 344 355 358 360 359 359 357 355 354 355 353 354 353 352 352 349 347 346 342
340 340 338 349 348 348 349 349 349 349 350 352 352 349 345 340 341 331 339 346 347 349 355 359 358 361 361 362 358 356 354 353 356 353 353 353 353 353 352 352 351 346 340
343 345 347 349 351 350 350 350 350 350 350 351 353 350 344 335 331 335 340 342 344 345 349 358 359 362 362 359 354 345 343 353 356 353 353 355 345 352 354 352 351 345 339
347 350 353 353 354 353 353 352 351 350 350 350 353 353 346 347 337 341 341 343 344 348 355 361 361 362 360 354 348 339 351 355 352 349 345 347 344 348 352 349 347 344 337
347 349 350 354 356 356 357 356 354 353 351 351 351 354 354 354 348 349 356 354 354 355 363 362 362 361 355 350 339 340 349 355 350 350 350 345 345 349 350 350 345 339 334
343 347 347 349 357 358 358 359 358 358 355 355 352 353 353 350 350 351 359 362 360 364 364 361 358 352 350 346 329 343 350 352 349 349 343 351 346 349 348 346 342 336 334
339 343 346 350 357 357 358 358 358 359 359 356 356 355 354 353 354 355 360 361 363 363 360 360 351 350 349 339 324 342 350 351 349 344 343 344 346 346 346 343 339 327 323
336 336 340 345 350 359 360 361 359 358 360 360 359 358 358 359 361 362 363 364 362 358 359 352 350 349 343 330 319 344 351 348 348 345 343 344 344 344 343 341 337 331 323
334 333 335 339 345 349 356 360 361 358 358 359 359 359 359 360 362 363 363 361 359 358 356 351 349 345 334 322 317 337 346 345 344 345 344 342 344 343 341 339 337 332 326
332 332 333 336 344 348 352 359 360 360 360 360 359 362 363 362 362 363 361 359 357 355 351 349 345 337 325 320 319 319 335 332 339 342 343 342 343 342 338 338 337 331 328
331 331 332 335 337 344 349 351 358 359 360 361 360 363 364 363 359 357 359 359 354 353 350 345 337 329 320 320 318 316 320 325 334 341 341 341 342 337 333 332 332 325 322
331 331 331 333 334 338 344 350 351 355 356 356 359 360 361 360 360 354 357 354 353 351 346 340 338 338 335 323 315 314 315 323 331 337 340 340 337 337 338 336 330 322 332
330 330 330 332 334 335 339 344 348 352 353 353 353 338 353 358 358 357 352 350 348 347 344 338 336 334 330 323 314 316 326 325 327 333 337 338 338 339 338 336 326 331 333
329 330 330 330 332 334 336 339 345 347 351 353 350 353 353 353 353 351 351 349 346 344 341 335 331 328 328 315 313 314 315 318 321 329 334 337 336 337 338 337 335 334 331
327 328 330 329 330 332 334 337 338 342 350 351 350 350 349 347 348 346 342 336 340 335 333 326 318 317 316 314 313 314 314 314 317 329 335 334 336 338 338 338 337 336 334
Wind_Speed
19 19 18 18 17 16 16 16 15 14 12 11 9 9 9 9 11 5 6 5 3 4 4 3 4 3 3 6 4 5 8 7 11 9 9 3 9 10 18 20 18 12 6
20 21 21 20 20 19 18 17 17 16 14 12 12 10 8 6 6 3 3 2 4 3 3 2 3 5 4 10 8 8 9 9 13 13 11 7 10 12 16 26 38 22 19
22 23 23 22 21 21 21 20 20 19 17 16 12 10 9 7 4 8 6 8 5 4 6 6 7 8 8 9 4 12 13 12 13 17 14 8 10 13 22 31 41 29 20
21 23 24 24 24 23 21 21 21 21 19 18 16 14 12 12 7 6 5 5 6 7 7 9 10 10 10 11 12 12 13 16 16 16 17 20 23 18 22 31 42 33 13
23 23 23 24 23 22 22 21 22 22 21 20 19 16 16 12 8 8 7 7 7 10 10 9 9 10 11 14 17 17 17 16 17 18 20 19 25 23 26 33 32 17 15
24 22 20 20 21 22 21 21 23 26 24 24 20 22 17 16 12 11 10 8 11 11 9 8 10 13 15 16 16 20 21 19 20 18 16 22 22 26 30 26 30 26 13
24 25 23 22 20 22 22 22 23 26 25 25 23 22 23 18 15 12 11 11 11 9 7 7 10 13 15 20 22 20 22 17 17 19 17 19 23 23 28 26 21 15 5
22 24 24 23 22 22 23 23 24 26 25 25 25 23 22 21 18 16 14 14 14 13 12 13 15 16 17 17 17 15 16 14 18 20 22 21 18 22 26 21 12 9 6
18 22 23 23 23 23 25 25 25 25 25 25 25 24 23 22 18 18 15 13 16 15 15 13 13 13 14 14 14 13 17 19 18 21 22 22 22 22 20 17 8 4 6
11 20 22 24 24 24 25 25 25 25 24 24 24 23 23 23 23 23 18 16 15 16 15 16 15 12 13 13 14 14 15 19 20 22 23 24 22 21 17 13 5 3 5
6 12 20 24 25 24 24 25 26 25 25 24 23 23 22 21 20 19 19 17 14 13 12 12 12 12 11 11 13 16 19 19 22 22 22 22 20 16 13 9 4 4 4
10 6 14 22 25 27 26 27 26 26 26 27 27 24 22 21 20 18 17 16 14 14 14 13 13 11 11 11 15 16 17 20 21 20 20 18 18 15 11 8 3 2 4
11 10 11 16 21 24 26 26 28 29 27 27 28 29 23 22 22 20 20 19 17 17 15 13 12 10 10 13 14 15 16 16 16 17 17 18 14 14 8 5 3 4 12
12 12 10 11 17 18 22 24 27 27 27 29 29 30 28 24 24 25 24 22 20 18 17 13 11 10 11 12 14 19 18 12 11 13 14 13 14 10 7 4 3 5 12
12 12 12 11 11 16 17 21 25 26 28 31 30 30 30 27 27 26 25 22 19 18 15 13 10 11 7 13 17 16 10 11 11 11 11 12 13 10 5 4 2 9 11
13 14 15 12 10 16 18 19 22 27 27 31 34 29 28 28 30 26 21 20 17 16 14 12 11 11 7 14 15 11 8 9 9 10 13 14 13 9 4 2 7 11 17
14 15 16 15 12 12 17 20 20 20 27 28 32 30 29 30 30 27 21 18 16 14 14 11 17 12 13 13 10 8 6 4 5 9 11 9 13 7 5 4 6 11 13
14 16 18 18 13 11 12 17 20 21 24 30 30 31 32 29 29 26 21 19 15 17 15 20 12 11 12 10 7 4 4 7 8 8 9 9 7 6 5 4 5 11 10
13 15 17 18 16 12 10 11 17 20 23 26 29 29 29 28 25 22 20 19 20 20 22 16 12 13 8 7 5 3 1 7 8 9 7 5 4 4 4 3 7 7 8
14 16 17 17 16 17 14 12 13 17 22 24 26 25 28 28 26 23 23 24 23 22 18 17 15 9 5 5 3 3 2 8 8 8 7 4 0 2 3 4 6 8 6
16 16 16 16 15 16 16 13 13 16 18 19 21 22 23 27 26 27 27 25 23 18 20 16 11 6 4 2 2 2 1 2 3 8 6 5 1 2 5 8 5 7 7
17 17 16 16 16 15 17 16 15 14 17 17 21 24 27 28 33 30 27 26 27 24 20 14 8 6 5 5 3 3 5 4 1 3 2 3 2 3 5 6 6 5 7
19 18 17 17 16 16 16 18 18 17 19 26 26 26 25 27 33 32 31 31 28 23 19 15 13 11 5 3 2 1 2 2 2 3 1 1 4 3 2 2 5 7 7
22 20 19 18 18 17 17 18 20 16 17 22 27 43 30 32 31 32 25 22 21 19 19 17 16 14 12 9 4 3 3 3 2 2 2 2 4 3 4 2 4 7 5
24 22 21 20 20 19 19 18 18 17 17 25 25 22 35 33 27 26 24 21 16 16 15 16 17 16 14 8 6 5 5 5 3 2 1 5 6 7 5 7 7 3 3
26 24 23 22 21 20 20 19 18 18 21 26 28 28 27 26 33 33 25 18 14 12 17 17 14 17 11 8 6 5 5 4 4 4 4 5 6 9 11 9 11 10 10
Wind_Direction
196 196 197 195 194 194 192 195 194 204 197 201 205 202 223 226 239 220 248 264 247 233 259 277 348 339 318 294 328 318 312 306 295 310 304 284 226 263 296 306 319 305 310
199 199 198 200 201 201 203 203 203 206 206 206 211 222 233 251 243 205 140 224 203 208 233 267 294 272 300 298 303 310 308 308 293 308 310 286 254 252 278 298 321 289 294
200 198 200 203 205 206 206 208 209 209 212 202 223 224 228 237 241 230 237 207 207 233 263 269 273 279 308 301 315 307 293 303 299 287 284 289 271 269 280 291 302 315 285
201 200 202 205 207 210 211 211 211 209 216 213 210 217 211 218 246 226 195 160 241 251 274 283 274 269 278 288 296 300 291 291 287 289 291 281 285 282 287 288 304 313 288
206 203 202 206 209 208 210 213 213 211 207 225 206 218 210 220 236 224 227 264 241 259 264 271 274 273 286 288 285 302 302 297 296 296 293 286 295 288 275 284 306 321 325
205 206 205 202 207 210 209 209 210 214 213 216 220 209 215 219 227 227 237 241 251 246 254 254 271 278 282 294 293 288 299 299 297 293 292 292 293 292 290 303 308 324 328
207 201 202 202 203 206 208 208 206 214 209 213 220 221 216 214 228 236 231 242 256 265 277 283 287 286 280 281 295 299 296 309 298 301 292 289 299 306 301 316 317 324 300
202 203 201 203 206 206 205 206 205 210 208 212 219 223 222 220 226 230 228 237 250 257 271 275 280 283 289 295 295 302 296 299 294 292 295 299 304 301 311 320 312 308 228
197 198 202 203 204 203 204 202 203 207 208 211 220 223 223 215 219 225 239 248 250 261 283 282 285 286 292 297 294 303 295 309 310 298 305 310 311 310 311 322 299 259 198
196 196 205 203 204 204 203 202 203 205 206 207 214 220 222 227 223 219 228 233 242 252 262 266 278 285 290 295 294 302 304 295 303 309 311 316 317 316 313 317 269 234 253
174 216 206 210 208 209 208 207 206 207 205 204 211 212 218 222 229 227 233 239 238 244 266 283 287 287 290 302 309 309 322 315 313 319 322 324 325 324 314 317 241 225 244
345 312 219 222 216 216 216 212 212 210 210 208 204 212 218 218 220 225 218 221 239 250 265 272 278 278 289 307 303 315 310 321 326 322 327 334 336 331 314 323 276 275 183
348 327 305 220 223 220 219 217 213 215 214 214 210 215 220 220 219 215 216 229 244 253 249 256 265 273 292 294 309 324 312 318 321 326 333 337 338 336 323 277 247 199 154
347 348 324 302 226 224 219 217 218 217 214 213 216 216 219 218 215 219 229 240 250 249 250 242 247 267 279 299 313 318 322 324 331 336 333 331 333 332 314 294 213 190 152
355 350 341 321 267 234 230 222 217 218 214 212 211 218 219 218 218 223 234 244 241 247 238 232 241 255 285 286 316 318 338 326 336 349 353 334 339 332 310 310 250 168 130
1 354 347 326 296 249 239 233 225 217 215 219 218 212 218 215 223 227 225 224 228 236 220 224 232 241 270 298 312 321 332 340 -0 357 352 1 346 355 350 312 131 135 132
357 356 349 335 317 276 248 237 235 227 216 218 223 216 218 218 221 221 210 213 219 210 209 210 227 247 277 300 308 317 342 359 345 344 4 4 1 12 20 104 134 144 151
356 356 356 353 334 305 270 247 236 237 225 218 218 218 216 216 217 216 209 211 204 203 197 216 225 247 271 296 324 330 38 312 326 348 4 355 7 45 83 104 148 151 158
347 349 349 350 351 338 301 274 250 233 229 223 218 213 211 206 204 205 206 199 198 198 210 220 216 241 264 294 327 121 69 311 326 334 347 352 354 66 97 143 171 172 167
337 338 341 342 343 347 327 292 269 242 234 228 221 210 202 198 196 197 192 193 200 205 206 206 215 234 250 288 328 163 99 315 327 334 340 342 45 104 120 154 184 192 189
336 340 339 336 337 336 332 317 285 264 247 237 222 207 196 184 186 185 196 191 191 184 195 206 205 223 245 260 299 292 264 226 344 322 346 329 210 165 149 148 207 206 199
323 331 333 334 332 331 324 321 303 274 261 233 214 205 193 184 190 194 188 181 188 189 202 191 181 203 221 242 265 294 292 296 302 299 323 326 159 165 163 181 174 179 174
311 315 320 323 328 328 317 313 306 283 262 231 214 195 192 186 189 189 183 186 190 189 187 177 166 163 155 276 231 274 291 267 287 293 269 182 162 145 162 175 162 137 130
298 302 307 310 314 318 313 306 299 290 269 241 219 203 224 205 184 179 174 180 174 171 173 175 167 169 160 186 197 157 51 22 276 250 181 203 190 193 198 260 159 125 194
288 288 293 299 302 305 305 300 297 275 267 254 233 205 175 185 165 164 164 176 181 180 178 171 174 165 178 181 182 185 194 202 213 183 198 210 213 193 205 193 178 197 228
277 279 282 289 291 292 292 295 288 271 251 249 225 221 186 176 173 171 172 157 200 187 188 197 196 186 191 188 191 191 197 202 195 168 194 241 220 217 220 196 194 191 189